| time (UTC) | temp F | wind direction | speed MPH | gust MPH | rain 1hr in | rain 24hr in | rain mn in | humidity % | barometer mb |
| 20260503210328 | 55 | 182 | 3.0 | 6.0 | 0.00 | 1.57 | 0.31 | 91 | 1013.3 |
| 20260503205823 | 55 | 198 | 4.0 | 9.0 | 0.00 | 1.57 | 0.31 | 91 | 1013.2 |
| 20260503205322 | 54 | 187 | 4.0 | 9.0 | 0.00 | 1.57 | 0.31 | 91 | 1013.3 |
| 20260503204818 | 54 | 190 | 5.0 | 9.0 | 0.00 | 1.57 | 0.31 | 92 | 1013.2 |
| 20260503204316 | 54 | 193 | 2.0 | 6.0 | 0.04 | 1.57 | 0.31 | 91 | 1013.2 |
| 20260503203831 | 54 | 191 | 4.0 | 6.0 | 0.04 | 1.57 | 0.31 | 91 | 1013.1 |
| 20260503203329 | 54 | 178 | 4.0 | 5.0 | 0.04 | 1.57 | 0.31 | 91 | 1013.2 |
| 20260503202823 | 54 | 190 | 1.0 | 5.0 | 0.04 | 1.57 | 0.31 | 92 | 1013.1 |
| 20260503202323 | 54 | 190 | 3.0 | 5.0 | 0.04 | 1.57 | 0.31 | 92 | 1013.1 |
| 20260503201819 | 54 | 188 | 2.0 | 6.0 | 0.04 | 1.57 | 0.31 | 92 | 1013.1 |
| 20260503201317 | 53 | 165 | 3.0 | 6.0 | 0.04 | 1.57 | 0.31 | 92 | 1013.1 |
| 20260503200831 | 53 | 180 | 2.0 | 3.0 | 0.04 | 1.57 | 0.31 | 91 | 1013.0 |
| 20260503200332 | 54 | 180 | 1.0 | 3.0 | 0.04 | 1.57 | 0.31 | 92 | 1013.0 |
| 20260503195829 | 54 | 180 | 0.0 | 3.0 | 0.04 | 1.57 | 0.31 | 91 | 1013.0 |
| 20260503195329 | 54 | 180 | 1.0 | 3.0 | 0.04 | 1.57 | 0.31 | 91 | 1013.0 |
| 20260503194822 | 55 | 180 | 0.0 | 2.0 | 0.04 | 1.57 | 0.31 | 91 | 1013.0 |
| 20260503194342 | 55 | 180 | 1.0 | 3.0 | 0.00 | 1.54 | 0.31 | 91 | 1012.9 |
| 20260503193837 | 55 | 180 | 2.0 | 3.0 | 0.00 | 1.54 | 0.31 | 90 | 1012.8 |
| 20260503193315 | 56 | 180 | 1.0 | 3.0 | 0.00 | 1.54 | 0.31 | 90 | 1012.8 |
| 20260503192854 | 56 | 172 | 2.0 | 5.0 | 0.00 | 1.54 | 0.31 | 89 | 1012.7 |
| 20260503192351 | 57 | 169 | 3.0 | 7.0 | 0.04 | 1.54 | 0.31 | 89 | 1012.7 |
| 20260503191827 | 57 | 178 | 3.0 | 9.0 | 0.04 | 1.54 | 0.31 | 89 | 1012.8 |
| 20260503191346 | 57 | 190 | 6.0 | 9.0 | 0.08 | 1.54 | 0.31 | 89 | 1012.7 |
| 20260503190818 | 57 | 157 | 6.0 | 9.0 | 0.08 | 1.54 | 0.31 | 90 | 1012.6 |
| 20260503190337 | 58 | 173 | 4.0 | 9.0 | 0.08 | 1.54 | 0.31 | 90 | 1012.7 |
| 20260503185825 | 58 | 183 | 3.0 | 6.0 | 0.08 | 1.54 | 0.31 | 89 | 1012.8 |
| 20260503185322 | 58 | 197 | 2.0 | 3.0 | 0.08 | 1.54 | 0.31 | 89 | 1012.8 |
| 20260503184837 | 58 | 197 | 2.0 | 4.0 | 0.08 | 1.54 | 0.31 | 89 | 1012.7 |
| 20260503184335 | 58 | 197 | 3.0 | 4.0 | 0.08 | 1.54 | 0.31 | 88 | 1012.7 |
| 20260503183850 | 59 | 202 | 2.0 | 7.0 | 0.08 | 1.54 | 0.31 | 88 | 1012.6 |
| 20260503183327 | 59 | 181 | 4.0 | 9.0 | 0.08 | 1.54 | 0.31 | 87 | 1012.5 |
| 20260503182841 | 59 | 143 | 5.0 | 11.0 | 0.08 | 1.54 | 0.31 | 86 | 1012.3 |
| 20260503182319 | 59 | 145 | 7.0 | 13.0 | 0.04 | 1.50 | 0.30 | 85 | 1012.1 |
| 20260503181834 | 60 | 173 | 8.0 | 13.0 | 0.04 | 1.50 | 0.30 | 84 | 1011.8 |
| 20260503181333 | 60 | 148 | 8.0 | 16.0 | 0.00 | 1.46 | 0.29 | 83 | 1012.1 |
| 20260503180849 | 60 | 167 | 7.0 | 17.0 | 0.00 | 1.46 | 0.29 | 82 | 1012.3 |
| 20260503180327 | 61 | 155 | 6.0 | 9.0 | 0.00 | 1.46 | 0.29 | 82 | 1012.3 |
| 20260503175816 | 61 | 170 | 5.0 | 9.0 | 0.00 | 1.46 | 0.29 | 81 | 1012.3 |
| 20260503175335 | 61 | 137 | 5.0 | 9.0 | 0.00 | 1.46 | 0.29 | 81 | 1012.2 |
| 20260503174849 | 61 | 143 | 5.0 | 10.0 | 0.00 | 1.46 | 0.29 | 81 | 1012.2 |
| 20260503174327 | 61 | 146 | 6.0 | 10.0 | 0.00 | 1.46 | 0.29 | 81 | 1012.3 |
| 20260503173822 | 61 | 152 | 7.0 | 12.0 | 0.00 | 1.46 | 0.29 | 80 | 1012.3 |
| 20260503173319 | 62 | 162 | 5.0 | 12.0 | 0.00 | 1.46 | 0.29 | 81 | 1012.3 |
| 20260503172815 | 62 | 168 | 7.0 | 11.0 | 0.00 | 1.46 | 0.29 | 81 | 1012.2 |
| 20260503172333 | 62 | 150 | 6.0 | 10.0 | 0.00 | 1.46 | 0.29 | 81 | 1012.2 |
| 20260503171830 | 61 | 163 | 6.0 | 10.0 | 0.00 | 1.46 | 0.29 | 81 | 1012.3 |
| 20260503171326 | 61 | 154 | 5.0 | 9.0 | 0.00 | 1.46 | 0.29 | 82 | 1012.3 |
| 20260503170822 | 61 | 146 | 4.0 | 7.0 | 0.00 | 1.46 | 0.29 | 82 | 1012.2 |
| 20260503170322 | 61 | 141 | 5.0 | 7.0 | 0.00 | 1.46 | 0.29 | 81 | 1012.2 |
| 20260503150822 | 63 | 141 | 9.0 | 15.0 | 0.00 | 1.46 | 0.29 | 82 | 1012.6 |
| 20260503150318 | 62 | 153 | 8.0 | 13.0 | 0.00 | 1.46 | 0.29 | 82 | 1012.7 |
| 20260503131353 | 58 | 152 | 6.0 | 15.0 | 0.00 | 1.46 | 0.29 | 88 | 1013.8 |
| 20260503130827 | 59 | 152 | 10.0 | 15.0 | 0.00 | 1.46 | 0.29 | 87 | 1013.7 |
| 20260503130325 | 59 | 187 | 4.0 | 9.0 | 0.00 | 1.46 | 0.29 | 89 | 1013.8 |
| 20260503110814 | 56 | 150 | 8.0 | 12.0 | 0.00 | 1.46 | 0.29 | 91 | 1014.2 |
| 20260503110332 | 57 | 184 | 7.0 | 14.0 | 0.00 | 1.46 | 0.29 | 91 | 1014.2 |
| 20260503090326 | 54 | 160 | 5.0 | 8.0 | 0.31 | 1.34 | 0.27 | 93 | 1014.2 |
| 20260503081334 | 54 | 173 | 4.0 | 9.0 | 0.47 | 1.06 | 0.21 | 92 | 1014.1 |
| 20260503080827 | 55 | 199 | 4.0 | 9.0 | 0.43 | 1.02 | 0.20 | 93 | 1014.1 |
| 20260503080325 | 55 | 140 | 6.0 | 9.0 | 0.43 | 0.98 | 0.20 | 93 | 1014.1 |
| 20260503072833 | 56 | 220 | 1.0 | 3.0 | 0.12 | 0.63 | 0.13 | 93 | 1013.9 |
| 20260503072332 | 56 | 220 | 2.0 | 3.0 | 0.16 | 0.59 | 0.12 | 93 | 1013.9 |
| 20260503071827 | 56 | 220 | 2.0 | 2.0 | 0.28 | 0.59 | 0.12 | 93 | 1013.9 |
| 20260503071327 | 56 | 221 | 1.0 | 2.0 | 0.31 | 0.59 | 0.12 | 93 | 1013.9 |
| 20260503070822 | 55 | 221 | 1.0 | 2.0 | 0.31 | 0.59 | 0.12 | 93 | 1013.8 |
| 20260503070321 | 55 | 221 | 1.0 | 2.0 | 0.31 | 0.55 | 0.11 | 93 | 1013.8 |
| 20260503060329 | 54 | 210 | 0.0 | 2.0 | 0.24 | 0.24 | 0.05 | 92 | 1013.7 |
| 20260503054821 | 53 | 210 | 0.0 | 4.0 | 0.12 | 0.12 | 0.02 | 92 | 1013.7 |
| 20260503054317 | 53 | 210 | 2.0 | 5.0 | 0.08 | 0.08 | 0.02 | 92 | 1013.7 |
| 20260503053833 | 53 | 202 | 1.0 | 6.0 | 0.08 | 0.08 | 0.02 | 93 | 1013.7 |
| 20260503053332 | 53 | 200 | 3.0 | 6.0 | 0.04 | 0.04 | 0.01 | 93 | 1013.7 |
| 20260503052829 | 52 | 207 | 4.0 | 6.0 | 0.04 | 0.04 | 0.01 | 92 | 1013.7 |
| 20260503052348 | 53 | 41 | 1.0 | 2.0 | 0.00 | 0.00 | 0.00 | 92 | 1013.4 |
| 20260503051822 | 52 | 41 | 0.0 | 1.0 | 0.00 | 0.00 | 0.00 | 93 | 1013.2 |
| 20260503051318 | 52 | 41 | 0.0 | 0.0 | 0.00 | 0.00 | 0.00 | 92 | 1013.2 |
| 20260503050815 | 52 | 41 | 0.0 | 0.0 | 0.00 | 0.00 | 0.00 | 92 | 1013.2 |
| 20260503050333 | 52 | 41 | 0.0 | 0.0 | 0.00 | 0.00 | 0.00 | 92 | 1013.1 |
| 20260503045847 | 52 | 41 | 0.0 | 1.0 | 0.00 | 0.00 | 0.00 | 92 | 1013.1 |
| 20260503045326 | 52 | 40 | 0.0 | 1.0 | 0.00 | 0.00 | 0.00 | 92 | 1013.1 |
| 20260503044820 | 52 | 40 | 0.0 | 0.0 | 0.00 | 0.00 | 0.00 | 93 | 1013.1 |
| 20260503044340 | 52 | 40 | 0.0 | 0.0 | 0.00 | 0.00 | 0.00 | 93 | 1013.0 |
| 20260503043835 | 52 | 40 | 0.0 | 2.0 | 0.00 | 0.00 | 0.00 | 93 | 1013.0 |
| 20260503043333 | 51 | 40 | 1.0 | 2.0 | 0.00 | 0.00 | 0.00 | 93 | 1013.0 |
| 20260503042828 | 51 | 40 | 0.0 | 1.0 | 0.00 | 0.00 | 0.00 | 93 | 1013.0 |
| 20260503042328 | 51 | 40 | 1.0 | 2.0 | 0.00 | 0.00 | 0.00 | 93 | 1013.0 |
| 20260503041838 | 51 | 40 | 1.0 | 2.0 | 0.00 | 0.00 | 0.00 | 93 | 1013.0 |
| 20260503041315 | 51 | 40 | 0.0 | 2.0 | 0.00 | 0.00 | 0.00 | 92 | 1013.0 |
| 20260503040831 | 51 | 40 | 1.0 | 2.0 | 0.00 | 0.00 | 0.00 | 92 | 1013.0 |
| 20260503040328 | 51 | 40 | 0.0 | 0.0 | 0.00 | 0.00 | 0.00 | 92 | 1013.0 |
| 20260503035824 | 51 | 39 | 0.0 | 0.0 | 0.00 | 0.00 | 0.00 | 92 | 1013.1 |
| 20260503035322 | 50 | 39 | 0.0 | 0.0 | 0.00 | 0.00 | 0.00 | 92 | 1013.3 |
| 20260503034837 | 50 | 39 | 0.0 | 0.0 | 0.00 | 0.00 | 0.00 | 92 | 1013.2 |
| 20260503034402 | 51 | 39 | 0.0 | 0.0 | 0.00 | 0.00 | 0.00 | 92 | 1013.2 |
| 20260503033832 | 51 | 39 | 0.0 | 0.0 | 0.00 | 0.00 | 0.00 | 92 | 1013.2 |
| 20260503033330 | 51 | 39 | 0.0 | 0.0 | 0.00 | 0.00 | 0.00 | 92 | 1013.2 |
| 20260503032823 | 51 | 39 | 0.0 | 0.0 | 0.00 | 0.00 | 0.00 | 92 | 1013.1 |
| 20260503032320 | 51 | 39 | 0.0 | 0.0 | 0.00 | 0.00 | 0.00 | 92 | 1013.2 |
| 20260503031817 | 51 | 39 | 0.0 | 0.0 | 0.00 | 0.00 | 0.00 | 92 | 1013.2 |
| 20260503031314 | 51 | 39 | 0.0 | 0.0 | 0.00 | 0.00 | 0.00 | 92 | 1013.3 |
| 20260503030830 | 51 | 39 | 0.0 | 0.0 | 0.00 | 0.00 | 0.00 | 92 | 1013.4 |
| 20260503030329 | 51 | 39 | 0.0 | 0.0 | 0.00 | 0.00 | 0.00 | 92 | 1013.4 |
| 20260503025824 | 51 | 38 | 0.0 | 0.0 | 0.00 | 0.00 | 0.00 | 91 | 1013.4 |
| 20260503025324 | 51 | 38 | 0.0 | 0.0 | 0.00 | 0.00 | 0.00 | 91 | 1013.4 |
| 20260503024819 | 51 | 38 | 0.0 | 0.0 | 0.00 | 0.00 | 0.00 | 91 | 1013.5 |
| 20260503024316 | 51 | 38 | 0.0 | 0.0 | 0.00 | 0.00 | 0.00 | 91 | 1013.5 |
| 20260503023831 | 52 | 38 | 0.0 | 0.0 | 0.00 | 0.00 | 0.00 | 91 | 1013.5 |
| 20260503023330 | 52 | 38 | 0.0 | 1.0 | 0.00 | 0.00 | 0.00 | 91 | 1013.5 |
| 20260503022825 | 52 | 38 | 0.0 | 3.0 | 0.00 | 0.00 | 0.00 | 91 | 1013.5 |
| 20260503022324 | 52 | 38 | 1.0 | 3.0 | 0.00 | 0.00 | 0.00 | 91 | 1013.5 |
| 20260503021821 | 52 | 38 | 2.0 | 2.0 | 0.00 | 0.00 | 0.00 | 91 | 1013.5 |
| 20260503021320 | 52 | 38 | 0.0 | 1.0 | 0.00 | 0.00 | 0.00 | 91 | 1013.7 |
| 20260503020815 | 52 | 38 | 1.0 | 1.0 | 0.00 | 0.00 | 0.00 | 90 | 1013.8 |
| 20260503020334 | 52 | 38 | 1.0 | 1.0 | 0.00 | 0.00 | 0.00 | 90 | 1013.8 |
| 20260503015827 | 52 | 38 | 0.0 | 2.0 | 0.00 | 0.00 | 0.00 | 90 | 1013.9 |
| 20260503015325 | 53 | 38 | 0.0 | 2.0 | 0.00 | 0.00 | 0.00 | 89 | 1013.9 |
| 20260503014842 | 53 | 38 | 2.0 | 2.0 | 0.00 | 0.00 | 0.00 | 89 | 1013.8 |
| 20260503014317 | 53 | 38 | 0.0 | 0.0 | 0.00 | 0.00 | 0.00 | 90 | 1013.6 |
| 20260503013833 | 53 | 38 | 0.0 | 0.0 | 0.00 | 0.00 | 0.00 | 89 | 1013.5 |
| 20260503013331 | 53 | 38 | 0.0 | 2.0 | 0.00 | 0.00 | 0.00 | 89 | 1013.5 |
| 20260503012825 | 53 | 38 | 0.0 | 3.0 | 0.00 | 0.00 | 0.00 | 90 | 1013.5 |
| 20260503012326 | 53 | 38 | 2.0 | 3.0 | 0.00 | 0.00 | 0.00 | 89 | 1013.7 |
| 20260503011821 | 53 | 38 | 1.0 | 2.0 | 0.00 | 0.00 | 0.00 | 89 | 1013.8 |
| 20260503011318 | 53 | 38 | 0.0 | 0.0 | 0.00 | 0.00 | 0.00 | 89 | 1013.9 |
| 20260503010815 | 53 | 38 | 0.0 | 0.0 | 0.00 | 0.00 | 0.00 | 89 | 1014.0 |
| 20260503010356 | 53 | 38 | 0.0 | 0.0 | 0.00 | 0.00 | 0.00 | 89 | 1013.9 |
| 20260503005830 | 53 | 38 | 0.0 | 1.0 | 0.00 | 0.04 | 0.00 | 89 | 1013.9 |
| 20260503005327 | 53 | 38 | 0.0 | 2.0 | 0.00 | 0.04 | 0.00 | 89 | 1013.9 |
| 20260503004824 | 53 | 38 | 1.0 | 2.0 | 0.00 | 0.04 | 0.00 | 89 | 1013.9 |
| 20260503004320 | 53 | 38 | 0.0 | 0.0 | 0.00 | 0.04 | 0.00 | 89 | 1014.0 |
| 20260503003815 | 53 | 38 | 0.0 | 0.0 | 0.00 | 0.04 | 0.00 | 89 | 1014.0 |
| 20260503003335 | 52 | 38 | 0.0 | 0.0 | 0.00 | 0.04 | 0.00 | 89 | 1014.0 |
| 20260503002851 | 52 | 38 | 0.0 | 0.0 | 0.00 | 0.04 | 0.00 | 89 | 1014.1 |
| 20260503002327 | 52 | 38 | 0.0 | 0.0 | 0.00 | 0.04 | 0.00 | 89 | 1014.1 |
| 20260503001842 | 52 | 38 | 0.0 | 1.0 | 0.00 | 0.04 | 0.00 | 89 | 1014.2 |
| 20260503001339 | 52 | 38 | 1.0 | 1.0 | 0.00 | 0.04 | 0.00 | 89 | 1014.3 |
| 20260503000814 | 52 | 38 | 0.0 | 0.0 | 0.00 | 0.04 | 0.00 | 89 | 1014.4 |
| 20260503000339 | 52 | 38 | 0.0 | 0.0 | 0.00 | 0.04 | 0.00 | 89 | 1014.5 |
| 20260502235854 | 52 | 38 | 0.0 | 1.0 | 0.00 | 0.08 | 0.00 | 88 | 1014.5 |
| 20260502235329 | 52 | 38 | 0.0 | 2.0 | 0.00 | 0.08 | 0.00 | 88 | 1014.4 |
| 20260502234825 | 52 | 38 | 0.0 | 2.0 | 0.00 | 0.08 | 0.00 | 89 | 1014.4 |
| 20260502234321 | 52 | 38 | 1.0 | 2.0 | 0.00 | 0.08 | 0.00 | 89 | 1014.4 |
| 20260502233817 | 52 | 37 | 0.0 | 2.0 | 0.00 | 0.08 | 0.00 | 89 | 1014.4 |
| 20260502233314 | 52 | 37 | 1.0 | 2.0 | 0.00 | 0.08 | 0.00 | 88 | 1014.3 |
| 20260502232828 | 52 | 37 | 0.0 | 3.0 | 0.00 | 0.08 | 0.00 | 88 | 1014.4 |
| 20260502232325 | 53 | 37 | 1.0 | 3.0 | 0.00 | 0.08 | 0.00 | 88 | 1014.5 |
| 20260502231823 | 53 | 37 | 0.0 | 1.0 | 0.00 | 0.08 | 0.00 | 88 | 1014.5 |
| 20260502231335 | 53 | 37 | 0.0 | 2.0 | 0.00 | 0.08 | 0.00 | 88 | 1014.5 |
| 20260502230851 | 53 | 37 | 1.0 | 2.0 | 0.00 | 0.08 | 0.00 | 88 | 1014.5 |
| 20260502230327 | 53 | 37 | 1.0 | 1.0 | 0.00 | 0.08 | 0.00 | 87 | 1014.6 |
| 20260502225833 | 53 | 37 | 0.0 | 2.0 | 0.00 | 0.08 | 0.00 | 87 | 1014.6 |
| 20260502225323 | 53 | 37 | 0.0 | 2.0 | 0.00 | 0.08 | 0.00 | 87 | 1014.7 |
| 20260502224815 | 53 | 37 | 1.0 | 2.0 | 0.00 | 0.08 | 0.00 | 87 | 1014.7 |
| 20260502224333 | 54 | 37 | 0.0 | 1.0 | 0.00 | 0.08 | 0.00 | 87 | 1014.7 |
| 20260502223827 | 54 | 37 | 1.0 | 1.0 | 0.00 | 0.08 | 0.00 | 86 | 1014.7 |
| 20260502223326 | 53 | 37 | 0.0 | 0.0 | 0.00 | 0.08 | 0.00 | 87 | 1014.7 |
| 20260502222839 | 54 | 36 | 0.0 | 0.0 | 0.00 | 0.08 | 0.00 | 86 | 1014.7 |
| 20260502222317 | 54 | 36 | 0.0 | 0.0 | 0.00 | 0.08 | 0.00 | 87 | 1014.7 |
| 20260502221831 | 54 | 36 | 0.0 | 0.0 | 0.00 | 0.08 | 0.00 | 86 | 1014.8 |
| 20260502221330 | 54 | 36 | 0.0 | 0.0 | 0.00 | 0.08 | 0.00 | 86 | 1014.8 |
| 20260502220824 | 54 | 36 | 0.0 | 2.0 | 0.00 | 0.08 | 0.00 | 85 | 1014.8 |
| 20260502220319 | 55 | 36 | 1.0 | 2.0 | 0.00 | 0.08 | 0.00 | 84 | 1014.8 |
| 20260502215833 | 55 | 36 | 1.0 | 2.0 | 0.00 | 0.12 | 0.02 | 84 | 1014.8 |
| 20260502215332 | 55 | 36 | 1.0 | 2.0 | 0.00 | 0.12 | 0.02 | 84 | 1014.9 |
| 20260502214826 | 55 | 36 | 1.0 | 2.0 | 0.00 | 0.12 | 0.02 | 84 | 1014.9 |
| 20260502214324 | 55 | 36 | 1.0 | 2.0 | 0.00 | 0.12 | 0.02 | 83 | 1014.9 |
| 20260502213819 | 56 | 36 | 1.0 | 2.0 | 0.00 | 0.12 | 0.02 | 82 | 1014.9 |
| 20260502213315 | 56 | 36 | 1.0 | 2.0 | 0.00 | 0.12 | 0.02 | 81 | 1015.0 |
| 20260502212829 | 57 | 36 | 1.0 | 2.0 | 0.00 | 0.12 | 0.02 | 81 | 1015.0 |
| 20260502212328 | 57 | 36 | 1.0 | 2.0 | 0.00 | 0.12 | 0.02 | 80 | 1014.9 |
| 20260502211824 | 57 | 36 | 1.0 | 2.0 | 0.00 | 0.12 | 0.02 | 81 | 1014.9 |
| 20260502211322 | 57 | 36 | 1.0 | 1.0 | 0.00 | 0.12 | 0.02 | 81 | 1014.9 |
| 20260502210838 | 57 | 36 | 0.0 | 0.0 | 0.00 | 0.12 | 0.02 | 80 | 1014.8 |